| time (UTC) | temp F | wind direction | speed knots | gust knots | rain 1hr in | rain 24hr in | rain mn in | humidity % | barometer mb |
| 20260505185656 | 88 | 174 | 1.7 | 6.1 | 0.00 | 0.00 | 0.00 | 31 | 1008.3 |
| 20260505185159 | 87 | 75 | 1.7 | 6.1 | 0.00 | 0.00 | 0.00 | 31 | 1008.4 |
| 20260505184658 | 87 | 346 | 1.7 | 4.3 | 0.00 | 0.00 | 0.00 | 30 | 1008.5 |
| 20260505184157 | 88 | 159 | 1.7 | 7.0 | 0.00 | 0.00 | 0.00 | 30 | 1008.5 |
| 20260505183656 | 87 | 163 | 1.7 | 7.8 | 0.00 | 0.00 | 0.00 | 31 | 1008.7 |
| 20260505183157 | 87 | 231 | 1.7 | 7.8 | 0.00 | 0.00 | 0.00 | 29 | 1008.7 |
| 20260505182656 | 88 | 226 | 1.7 | 7.0 | 0.00 | 0.00 | 0.00 | 31 | 1008.7 |
| 20260505182158 | 87 | 257 | 1.7 | 7.0 | 0.00 | 0.00 | 0.00 | 29 | 1008.8 |
| 20260505181658 | 87 | 171 | 1.7 | 9.6 | 0.00 | 0.00 | 0.00 | 30 | 1008.9 |
| 20260505181156 | 86 | 168 | 1.7 | 9.6 | 0.00 | 0.00 | 0.00 | 29 | 1008.8 |
| 20260505180658 | 87 | 265 | 1.7 | 4.3 | 0.00 | 0.00 | 0.00 | 28 | 1009.0 |
| 20260505180652 | 87 | 161 | 0.9 | 4.3 | 0.00 | 0.00 | 0.00 | 31 | 1009.1 |
| 20260505175927 | 86 | 322 | 1.7 | 5.2 | 0.00 | 0.00 | 0.00 | 30 | 1009.1 |
| 20260505175157 | 86 | 211 | 1.7 | 5.2 | 0.00 | 0.00 | 0.00 | 32 | 1009.2 |
| 20260505174657 | 86 | 231 | 0.9 | 5.2 | 0.00 | 0.00 | 0.00 | 32 | 1009.1 |
| 20260505174157 | 85 | 172 | 1.7 | 10.4 | 0.00 | 0.00 | 0.00 | 32 | 1009.1 |
| 20260505173657 | 85 | 232 | 1.7 | 10.4 | 0.00 | 0.00 | 0.00 | 35 | 1009.1 |
| 20260505173157 | 85 | 148 | 1.7 | 7.0 | 0.00 | 0.00 | 0.00 | 34 | 1009.1 |
| 20260505173142 | 86 | 239 | 0.9 | 7.0 | 0.00 | 0.00 | 0.00 | 36 | 1009.3 |
| 20260505172158 | 86 | 233 | 0.9 | 3.5 | 0.00 | 0.00 | 0.00 | 36 | 1009.4 |
| 20260505171656 | 85 | 190 | 0.9 | 4.3 | 0.00 | 0.00 | 0.00 | 37 | 1009.4 |
| 20260505171414 | 84 | 174 | 1.7 | 8.7 | 0.00 | 0.00 | 0.00 | 39 | 1009.4 |
| 20260505170656 | 84 | 210 | 0.9 | 8.7 | 0.00 | 0.00 | 0.00 | 37 | 1009.5 |
| 20260505170157 | 84 | 224 | 0.9 | 6.1 | 0.00 | 0.00 | 0.00 | 38 | 1009.7 |
| 20260505165925 | 85 | 145 | 0.9 | 4.3 | 0.00 | 0.00 | 0.00 | 39 | 1009.6 |
| 20260505165156 | 85 | 231 | 0.9 | 2.6 | 0.00 | 0.00 | 0.00 | 40 | 1009.7 |
| 20260505164656 | 84 | 191 | 0.9 | 6.1 | 0.00 | 0.00 | 0.00 | 41 | 1009.6 |
| 20260505164157 | 83 | 179 | 0.9 | 6.1 | 0.00 | 0.00 | 0.00 | 41 | 1009.7 |
| 20260505163658 | 83 | 143 | 0.9 | 4.3 | 0.00 | 0.00 | 0.00 | 41 | 1009.7 |
| 20260505163157 | 83 | 48 | 0.9 | 2.6 | 0.00 | 0.00 | 0.00 | 40 | 1009.8 |
| 20260505162658 | 82 | 12 | 0.9 | 2.6 | 0.00 | 0.00 | 0.00 | 43 | 1009.8 |
| 20260505162154 | 81 | 311 | 0.0 | 2.6 | 0.00 | 0.00 | 0.00 | 45 | 1009.9 |
| 20260505161650 | 80 | 162 | 0.9 | 4.3 | 0.00 | 0.00 | 0.00 | 44 | 1009.9 |
| 20260505161151 | 80 | 127 | 0.9 | 4.3 | 0.00 | 0.00 | 0.00 | 46 | 1010.2 |
| 20260505160651 | 79 | 195 | 0.9 | 3.5 | 0.00 | 0.00 | 0.00 | 47 | 1010.3 |
| 20260505160150 | 79 | 146 | 0.9 | 3.5 | 0.00 | 0.00 | 0.00 | 47 | 1010.3 |
| 20260505153144 | 75 | 193 | 0.0 | 3.5 | 0.00 | 0.00 | 0.00 | 53 | 1010.5 |
| 20260505153132 | 75 | 39 | 0.0 | 3.5 | 0.00 | 0.00 | 0.00 | 52 | 1010.5 |
| 20260505152147 | 74 | 155 | 0.0 | 0.9 | 0.00 | 0.00 | 0.00 | 54 | 1010.6 |
| 20260505151643 | 74 | 210 | 0.0 | 1.7 | 0.00 | 0.00 | 0.00 | 54 | 1010.5 |
| 20260505151142 | 73 | 153 | 0.0 | 1.7 | 0.00 | 0.00 | 0.00 | 55 | 1010.4 |
| 20260505150641 | 73 | 334 | 0.0 | 0.9 | 0.00 | 0.00 | 0.00 | 55 | 1010.5 |
| 20260505150138 | 73 | 147 | 0.0 | 2.6 | 0.00 | 0.00 | 0.00 | 55 | 1010.6 |
| 20260505140635 | 69 | 4 | 0.0 | 2.6 | 0.00 | 0.00 | 0.00 | 61 | 1010.5 |
| 20260505140133 | 68 | 308 | 0.0 | 1.7 | 0.00 | 0.00 | 0.00 | 61 | 1010.5 |
| 20260505125038 | 63 | 195 | 0.0 | 2.6 | 0.00 | 0.00 | 0.00 | 68 | 1010.6 |
| 20260505124532 | 63 | 221 | 0.0 | 4.3 | 0.00 | 0.00 | 0.00 | 69 | 1010.7 |
| 20260505124249 | 63 | 352 | 0.9 | 4.3 | 0.00 | 0.00 | 0.00 | 69 | 1010.8 |
| 20260505123520 | 63 | 236 | 0.9 | 3.5 | 0.00 | 0.00 | 0.00 | 69 | 1010.8 |
| 20260505123014 | 63 | 202 | 0.9 | 7.0 | 0.00 | 0.00 | 0.00 | 69 | 1010.8 |
| 20260505122507 | 62 | 193 | 0.9 | 7.0 | 0.00 | 0.00 | 0.00 | 70 | 1010.7 |
| 20260505122002 | 62 | 80 | 0.9 | 6.1 | 0.00 | 0.00 | 0.00 | 70 | 1010.7 |
| 20260505121455 | 62 | 140 | 0.9 | 4.3 | 0.00 | 0.00 | 0.00 | 71 | 1010.6 |
| 20260505121210 | 62 | 25 | 0.9 | 4.3 | 0.00 | 0.00 | 0.00 | 71 | 1010.5 |
| 20260505120443 | 62 | 221 | 0.9 | 3.5 | 0.00 | 0.00 | 0.00 | 71 | 1010.4 |
| 20260505120205 | 62 | 226 | 0.9 | 3.5 | 0.00 | 0.00 | 0.00 | 72 | 1010.4 |
| 20260505115658 | 62 | 28 | 0.9 | 3.5 | 0.00 | 0.00 | 0.00 | 72 | 1010.4 |
| 20260505114935 | 61 | 219 | 0.0 | 2.6 | 0.00 | 0.00 | 0.00 | 72 | 1010.3 |
| 20260505114435 | 61 | 50 | 0.0 | 3.5 | 0.00 | 0.00 | 0.00 | 73 | 1010.2 |
| 20260505113931 | 61 | 72 | 0.0 | 3.5 | 0.00 | 0.00 | 0.00 | 73 | 1010.2 |
| 20260505113700 | 61 | 205 | 0.0 | 0.9 | 0.00 | 0.00 | 0.00 | 74 | 1010.2 |
| 20260505112932 | 61 | 86 | 0.0 | 2.6 | 0.00 | 0.00 | 0.00 | 74 | 1010.1 |
| 20260505112432 | 60 | 47 | 0.0 | 2.6 | 0.00 | 0.00 | 0.00 | 75 | 1010.0 |
| 20260505111932 | 60 | 239 | 0.0 | 3.5 | 0.00 | 0.00 | 0.00 | 75 | 1010.0 |
| 20260505111658 | 60 | 11 | 0.0 | 3.5 | 0.00 | 0.00 | 0.00 | 75 | 1010.0 |
| 20260505110932 | 60 | 145 | 0.0 | 0.9 | 0.00 | 0.00 | 0.00 | 75 | 1009.9 |
| 20260505110434 | 60 | 120 | 0.0 | 0.9 | 0.00 | 0.00 | 0.00 | 75 | 1009.9 |
| 20260505101925 | 60 | 211 | 0.0 | 0.9 | 0.00 | 0.00 | 0.00 | 73 | 1009.5 |
| 20260505101647 | 60 | 193 | 0.0 | 0.9 | 0.00 | 0.00 | 0.00 | 73 | 1009.6 |
| 20260505100924 | 60 | 115 | 0.0 | 0.9 | 0.00 | 0.00 | 0.00 | 73 | 1009.5 |
| 20260505100423 | 60 | 22 | 0.0 | 1.7 | 0.00 | 0.00 | 0.00 | 72 | 1009.5 |
| 20260505100149 | 60 | 65 | 0.0 | 1.7 | 0.00 | 0.00 | 0.00 | 72 | 1009.5 |
| 20260505095425 | 61 | 34 | 0.0 | 1.7 | 0.00 | 0.00 | 0.00 | 72 | 1009.5 |
| 20260505094923 | 61 | 26 | 0.0 | 1.7 | 0.00 | 0.00 | 0.00 | 71 | 1009.6 |
| 20260505094425 | 61 | 214 | 0.0 | 0.9 | 0.00 | 0.00 | 0.00 | 71 | 1009.5 |
| 20260505093923 | 61 | 214 | 0.0 | 3.5 | 0.00 | 0.00 | 0.00 | 71 | 1009.4 |
| 20260505093423 | 61 | 293 | 0.0 | 3.5 | 0.00 | 0.00 | 0.00 | 70 | 1009.4 |
| 20260505092922 | 61 | 224 | 0.0 | 0.9 | 0.00 | 0.00 | 0.00 | 70 | 1009.4 |
| 20260505092420 | 62 | 220 | 0.0 | 0.9 | 0.00 | 0.00 | 0.00 | 70 | 1009.4 |
| 20260505091920 | 62 | 248 | 0.0 | 2.6 | 0.00 | 0.00 | 0.00 | 70 | 1009.4 |
| 20260505091644 | 62 | 212 | 0.0 | 2.6 | 0.00 | 0.00 | 0.00 | 70 | 1009.4 |
| 20260505090919 | 62 | 139 | 0.0 | 1.7 | 0.00 | 0.00 | 0.00 | 69 | 1009.3 |
| 20260505090419 | 62 | 155 | 0.0 | 1.7 | 0.00 | 0.00 | 0.00 | 69 | 1009.3 |
| 20260505085918 | 62 | 200 | 0.0 | 2.6 | 0.00 | 0.00 | 0.00 | 69 | 1009.3 |
| 20260505085418 | 62 | 39 | 0.0 | 2.6 | 0.00 | 0.00 | 0.00 | 69 | 1009.3 |
| 20260505084917 | 62 | 0 | 0.0 | 2.6 | 0.00 | 0.00 | 0.00 | 69 | 1009.3 |
| 20260505084419 | 62 | 98 | 0.0 | 2.6 | 0.00 | 0.00 | 0.00 | 69 | 1009.3 |
| 20260505083921 | 62 | 356 | 0.0 | 1.7 | 0.00 | 0.00 | 0.00 | 68 | 1009.4 |
| 20260505083421 | 62 | 212 | 0.0 | 1.7 | 0.00 | 0.00 | 0.00 | 68 | 1009.3 |
| 20260505082921 | 63 | 200 | 0.0 | 1.7 | 0.00 | 0.00 | 0.00 | 68 | 1009.2 |
| 20260505082422 | 63 | 199 | 0.0 | 1.7 | 0.00 | 0.00 | 0.00 | 68 | 1009.3 |
| 20260505081917 | 62 | 204 | 0.0 | 1.7 | 0.00 | 0.00 | 0.00 | 68 | 1009.3 |
| 20260505081643 | 62 | 59 | 0.0 | 1.7 | 0.00 | 0.00 | 0.00 | 68 | 1009.3 |
| 20260505080917 | 62 | 147 | 0.0 | 1.7 | 0.00 | 0.00 | 0.00 | 68 | 1009.3 |
| 20260505080414 | 62 | 204 | 0.0 | 1.7 | 0.00 | 0.00 | 0.00 | 68 | 1009.2 |
| 20260505080136 | 62 | 209 | 0.0 | 1.7 | 0.00 | 0.00 | 0.00 | 68 | 1009.4 |
| 20260505075413 | 62 | 223 | 0.0 | 0.9 | 0.00 | 0.00 | 0.00 | 67 | 1009.3 |
| 20260505074913 | 62 | 177 | 0.0 | 0.9 | 0.00 | 0.00 | 0.00 | 67 | 1009.3 |
| 20260505074634 | 62 | 143 | 0.0 | 0.9 | 0.00 | 0.00 | 0.00 | 67 | 1009.3 |
| 20260505073915 | 62 | 202 | 0.0 | 0.9 | 0.00 | 0.00 | 0.00 | 66 | 1009.3 |
| 20260505073414 | 62 | 1 | 0.0 | 2.6 | 0.00 | 0.00 | 0.00 | 66 | 1009.2 |
| 20260505072915 | 62 | 307 | 0.0 | 2.6 | 0.00 | 0.00 | 0.00 | 66 | 1009.1 |
| 20260505072414 | 62 | 150 | 0.0 | 0.9 | 0.00 | 0.00 | 0.00 | 65 | 1009.0 |
| 20260505071914 | 63 | 194 | 0.0 | 0.9 | 0.00 | 0.00 | 0.00 | 65 | 1009.0 |
| 20260505071413 | 63 | 72 | 0.0 | 1.7 | 0.00 | 0.00 | 0.00 | 64 | 1009.0 |
| 20260505070913 | 63 | 4 | 0.0 | 1.7 | 0.00 | 0.00 | 0.00 | 64 | 1009.0 |
| 20260505070414 | 63 | 217 | 0.0 | 1.7 | 0.00 | 0.00 | 0.00 | 63 | 1008.9 |
| 20260505065914 | 63 | 222 | 0.0 | 1.7 | 0.00 | 0.00 | 0.00 | 63 | 1008.9 |
| 20260505065413 | 63 | 19 | 0.0 | 1.7 | 0.00 | 0.00 | 0.00 | 63 | 1008.9 |
| 20260505065142 | 63 | 166 | 0.0 | 1.7 | 0.00 | 0.00 | 0.00 | 63 | 1008.9 |
| 20260505064414 | 63 | 218 | 0.0 | 1.7 | 0.00 | 0.00 | 0.00 | 63 | 1009.0 |
| 20260505063912 | 63 | 205 | 0.0 | 1.7 | 0.00 | 0.00 | 0.00 | 62 | 1008.9 |
| 20260505063411 | 63 | 109 | 0.0 | 1.7 | 0.00 | 0.00 | 0.00 | 62 | 1008.8 |
| 20260505062909 | 63 | 169 | 0.0 | 1.7 | 0.00 | 0.00 | 0.00 | 62 | 1008.9 |
| 20260505062408 | 63 | 226 | 0.0 | 1.7 | 0.00 | 0.00 | 0.00 | 61 | 1008.8 |
| 20260505061910 | 63 | 208 | 0.0 | 1.7 | 0.00 | 0.00 | 0.00 | 61 | 1008.8 |
| 20260505061405 | 63 | 228 | 0.0 | 1.7 | 0.00 | 0.00 | 0.00 | 61 | 1008.7 |
| 20260505061129 | 63 | 177 | 0.0 | 1.7 | 0.00 | 0.00 | 0.00 | 61 | 1008.8 |
| 20260505060405 | 63 | 248 | 0.0 | 1.7 | 0.00 | 0.00 | 0.00 | 60 | 1008.9 |
| 20260505060125 | 63 | 240 | 0.0 | 1.7 | 0.00 | 0.00 | 0.00 | 60 | 1009.0 |
| 20260505055620 | 63 | 152 | 0.0 | 0.9 | 0.00 | 0.00 | 0.00 | 60 | 1008.9 |
| 20260505055114 | 63 | 217 | 0.0 | 1.7 | 0.00 | 0.00 | 0.00 | 59 | 1008.9 |
| 20260505054954 | 63 | 173 | 0.0 | 0.9 | 0.00 | 0.00 | 0.00 | 59 | 1009.0 |
| 20260505053854 | 64 | 207 | 0.0 | 1.7 | 0.00 | 0.00 | 0.00 | 58 | 1009.0 |
| 20260505053352 | 64 | 180 | 0.0 | 1.7 | 0.00 | 0.00 | 0.00 | 58 | 1008.9 |
| 20260505052850 | 64 | 224 | 0.0 | 1.7 | 0.00 | 0.00 | 0.00 | 57 | 1008.9 |
| 20260505052353 | 64 | 167 | 0.0 | 0.9 | 0.00 | 0.00 | 0.00 | 57 | 1008.9 |
| 20260505051847 | 64 | 159 | 0.0 | 0.9 | 0.00 | 0.00 | 0.00 | 56 | 1008.9 |
| 20260505051341 | 65 | 157 | 0.0 | 0.9 | 0.00 | 0.00 | 0.00 | 56 | 1009.0 |
| 20260505050834 | 65 | 162 | 0.0 | 0.9 | 0.00 | 0.00 | 0.00 | 56 | 1008.9 |
| 20260505050328 | 65 | 176 | 0.0 | 0.0 | 0.00 | 0.00 | 0.00 | 55 | 1008.9 |
| 20260505041739 | 66 | 213 | 0.0 | 0.9 | 0.00 | 0.00 | 0.00 | 52 | 1008.5 |
| 20260505041241 | 66 | 165 | 0.0 | 0.9 | 0.00 | 0.00 | 0.00 | 52 | 1008.4 |
| 20260505040737 | 66 | 150 | 0.0 | 0.9 | 0.00 | 0.00 | 0.00 | 53 | 1008.4 |
| 20260505040237 | 66 | 150 | 0.0 | 0.9 | 0.00 | 0.00 | 0.00 | 52 | 1008.3 |
| 20260505040000 | 66 | 36 | 0.0 | 0.9 | 0.00 | 0.00 | 0.00 | 53 | 1008.3 |
| 20260505035233 | 65 | 217 | 0.0 | 0.9 | 0.00 | 0.00 | 0.00 | 53 | 1008.3 |
| 20260505034732 | 65 | 217 | 0.0 | 0.9 | 0.00 | 0.00 | 0.00 | 53 | 1008.3 |
| 20260505034233 | 66 | 216 | 0.0 | 0.9 | 0.00 | 0.00 | 0.00 | 53 | 1008.3 |
| 20260505033729 | 66 | 216 | 0.0 | 0.9 | 0.00 | 0.00 | 0.00 | 53 | 1008.4 |
| 20260505033504 | 66 | 155 | 0.0 | 0.0 | 0.00 | 0.00 | 0.00 | 53 | 1008.4 |
| 20260505033218 | 66 | 154 | 0.0 | 0.0 | 0.00 | 0.00 | 0.00 | 53 | 1008.4 |
| 20260505032453 | 66 | 155 | 0.0 | 0.0 | 0.00 | 0.00 | 0.00 | 53 | 1008.3 |
| 20260505031727 | 66 | 155 | 0.0 | 0.0 | 0.00 | 0.00 | 0.00 | 52 | 1008.3 |
| 20260505031448 | 66 | 155 | 0.0 | 0.0 | 0.00 | 0.00 | 0.00 | 52 | 1008.3 |
| 20260505030725 | 66 | 155 | 0.0 | 0.0 | 0.00 | 0.00 | 0.00 | 52 | 1008.4 |
| 20260505030226 | 66 | 154 | 0.0 | 0.0 | 0.00 | 0.00 | 0.00 | 52 | 1008.3 |
| 20260505025947 | 67 | 155 | 0.0 | 0.0 | 0.00 | 0.00 | 0.00 | 52 | 1008.4 |
| 20260505025704 | 67 | 155 | 0.0 | 0.0 | 0.00 | 0.00 | 0.00 | 51 | 1008.4 |
| 20260505025315 | 67 | 154 | 0.0 | 0.0 | 0.00 | 0.00 | 0.00 | 51 | 1008.4 |
| 20260505024452 | 67 | 155 | 0.0 | 0.0 | 0.00 | 0.00 | 0.00 | 51 | 1008.4 |
| 20260505024202 | 67 | 173 | 0.0 | 0.0 | 0.00 | 0.00 | 0.00 | 51 | 1008.4 |
| 20260505023227 | 67 | 173 | 0.0 | 0.9 | 0.00 | 0.00 | 0.00 | 51 | 1008.4 |
| 20260505022727 | 67 | 173 | 0.0 | 0.9 | 0.00 | 0.00 | 0.00 | 50 | 1008.4 |
| 20260505022226 | 67 | 278 | 0.0 | 0.9 | 0.00 | 0.00 | 0.00 | 50 | 1008.4 |
| 20260505021725 | 67 | 278 | 0.0 | 0.9 | 0.00 | 0.00 | 0.00 | 50 | 1008.3 |
| 20260505021226 | 68 | 278 | 0.0 | 0.9 | 0.00 | 0.00 | 0.00 | 50 | 1008.3 |
| 20260505020725 | 68 | 278 | 0.0 | 0.9 | 0.00 | 0.00 | 0.00 | 50 | 1008.2 |
| 20260505020226 | 68 | 278 | 0.0 | 0.9 | 0.00 | 0.00 | 0.00 | 49 | 1008.3 |
| 20260505020204 | 68 | 279 | 0.0 | 0.9 | 0.00 | 0.00 | 0.00 | 49 | 1008.3 |
| 20260505015225 | 68 | 279 | 0.0 | 0.0 | 0.00 | 0.00 | 0.00 | 48 | 1008.3 |
| 20260505014717 | 69 | 279 | 0.0 | 0.0 | 0.00 | 0.00 | 0.00 | 48 | 1008.2 |
| 20260505014212 | 69 | 279 | 0.0 | 0.9 | 0.00 | 0.00 | 0.00 | 48 | 1008.2 |
| 20260505013706 | 69 | 279 | 0.0 | 0.9 | 0.00 | 0.00 | 0.00 | 48 | 1008.1 |
| 20260505013200 | 69 | 244 | 0.0 | 0.9 | 0.00 | 0.00 | 0.00 | 47 | 1008.0 |
| 20260505012654 | 69 | 12 | 0.0 | 0.9 | 0.00 | 0.00 | 0.00 | 47 | 1007.9 |
| 20260505012148 | 69 | 12 | 0.0 | 0.9 | 0.00 | 0.00 | 0.00 | 47 | 1007.8 |
| 20260505011642 | 69 | 12 | 0.0 | 0.9 | 0.00 | 0.00 | 0.00 | 47 | 1007.8 |
| 20260505011136 | 70 | 12 | 0.0 | 0.9 | 0.00 | 0.00 | 0.00 | 46 | 1007.7 |
| 20260505010900 | 70 | 13 | 0.0 | 0.9 | 0.00 | 0.00 | 0.00 | 46 | 1007.7 |
| 20260505010124 | 70 | 13 | 0.0 | 0.0 | 0.00 | 0.00 | 0.00 | 46 | 1007.7 |
| 20260505005618 | 71 | 22 | 0.0 | 0.0 | 0.00 | 0.00 | 0.00 | 45 | 1007.7 |
| 20260505005112 | 71 | 23 | 0.0 | 0.0 | 0.00 | 0.00 | 0.00 | 45 | 1007.6 |
| 20260505004606 | 71 | 23 | 0.0 | 0.0 | 0.00 | 0.00 | 0.00 | 44 | 1007.5 |
| 20260505004334 | 72 | 23 | 0.0 | 0.9 | 0.00 | 0.00 | 0.00 | 44 | 1007.5 |
| 20260505003554 | 72 | 22 | 0.0 | 0.9 | 0.00 | 0.00 | 0.00 | 43 | 1007.6 |
| 20260505003048 | 72 | 22 | 0.0 | 0.9 | 0.00 | 0.00 | 0.00 | 43 | 1007.6 |
| 20260505002542 | 72 | 226 | 0.0 | 0.9 | 0.00 | 0.00 | 0.00 | 44 | 1007.7 |
| 20260505002036 | 72 | 229 | 0.0 | 0.9 | 0.00 | 0.00 | 0.00 | 43 | 1007.7 |
| 20260505001757 | 72 | 37 | 0.0 | 0.0 | 0.00 | 0.00 | 0.00 | 43 | 1007.6 |
| 20260505001025 | 72 | 37 | 0.0 | 0.9 | 0.00 | 0.00 | 0.00 | 43 | 1007.7 |
| 20260505000736 | 72 | 89 | 0.0 | 0.9 | 0.00 | 0.00 | 0.00 | 42 | 1007.8 |
| 20260505000012 | 72 | 355 | 0.0 | 0.9 | 0.00 | 0.00 | 0.00 | 42 | 1007.7 |
| 20260504235506 | 72 | 352 | 0.0 | 0.9 | 0.00 | 0.00 | 0.00 | 41 | 1007.7 |
| 20260504235000 | 72 | 352 | 0.0 | 0.9 | 0.00 | 0.00 | 0.00 | 41 | 1007.7 |
| 20260504234453 | 73 | 27 | 0.0 | 6.1 | 0.00 | 0.00 | 0.00 | 40 | 1007.7 |
| 20260504234206 | 73 | 225 | 0.0 | 6.1 | 0.00 | 0.00 | 0.00 | 39 | 1007.7 |
| 20260504233442 | 73 | 119 | 0.0 | 1.7 | 0.00 | 0.00 | 0.00 | 39 | 1007.6 |
| 20260504233202 | 73 | 163 | 0.0 | 0.0 | 0.00 | 0.00 | 0.00 | 39 | 1007.6 |
| 20260504232430 | 74 | 163 | 0.0 | 1.7 | 0.00 | 0.00 | 0.00 | 38 | 1007.5 |
| 20260504231924 | 74 | 151 | 0.0 | 1.7 | 0.00 | 0.00 | 0.00 | 37 | 1007.5 |
| 20260504231417 | 74 | 39 | 0.0 | 0.9 | 0.00 | 0.00 | 0.00 | 36 | 1007.4 |
| 20260504230912 | 75 | 232 | 0.0 | 2.6 | 0.00 | 0.00 | 0.00 | 36 | 1007.4 |
| 20260504230407 | 75 | 71 | 0.0 | 2.6 | 0.00 | 0.00 | 0.00 | 36 | 1007.4 |
| 20260504225900 | 76 | 141 | 0.0 | 3.5 | 0.00 | 0.00 | 0.00 | 36 | 1007.4 |
| 20260504225354 | 76 | 15 | 0.9 | 3.5 | 0.00 | 0.00 | 0.00 | 35 | 1007.5 |
| 20260504225114 | 76 | 136 | 0.0 | 2.6 | 0.00 | 0.00 | 0.00 | 35 | 1007.5 |
| 20260504224615 | 77 | 44 | 0.9 | 4.3 | 0.00 | 0.00 | 0.00 | 34 | 1007.6 |
| 20260504223836 | 77 | 66 | 0.9 | 4.3 | 0.00 | 0.00 | 0.00 | 34 | 1007.7 |
| 20260504223331 | 77 | 243 | 0.9 | 3.5 | 0.00 | 0.00 | 0.00 | 34 | 1007.6 |
| 20260504222824 | 78 | 203 | 0.9 | 3.5 | 0.00 | 0.00 | 0.00 | 33 | 1007.6 |
| 20260504222318 | 78 | 211 | 0.0 | 3.5 | 0.00 | 0.00 | 0.00 | 33 | 1007.6 |
| 20260504221812 | 79 | 274 | 0.0 | 3.5 | 0.00 | 0.00 | 0.00 | 33 | 1007.5 |
| 20260504221306 | 79 | 179 | 0.9 | 4.3 | 0.00 | 0.00 | 0.00 | 33 | 1007.4 |
| 20260504220800 | 79 | 249 | 0.9 | 4.3 | 0.00 | 0.00 | 0.00 | 32 | 1007.4 |
| 20260504220254 | 79 | 96 | 0.9 | 1.7 | 0.00 | 0.00 | 0.00 | 32 | 1007.5 |
| 20260504215748 | 80 | 212 | 0.0 | 1.7 | 0.00 | 0.00 | 0.00 | 32 | 1007.4 |
| 20260504215242 | 80 | 186 | 0.0 | 3.5 | 0.00 | 0.00 | 0.00 | 31 | 1007.4 |
| 20260504215001 | 80 | 151 | 0.9 | 3.5 | 0.00 | 0.00 | 0.00 | 31 | 1007.4 |
| 20260504214230 | 81 | 301 | 0.9 | 5.2 | 0.00 | 0.00 | 0.00 | 31 | 1007.4 |
| 20260504213947 | 81 | 162 | 0.9 | 5.2 | 0.00 | 0.00 | 0.00 | 30 | 1007.4 |
| 20260504213218 | 82 | 223 | 0.9 | 4.3 | 0.00 | 0.00 | 0.00 | 30 | 1007.3 |
| 20260504212712 | 82 | 44 | 0.9 | 4.3 | 0.00 | 0.00 | 0.00 | 30 | 1007.3 |
| 20260504212206 | 82 | 215 | 0.9 | 2.6 | 0.00 | 0.00 | 0.00 | 30 | 1007.4 |
| 20260504211700 | 82 | 165 | 0.9 | 3.5 | 0.00 | 0.00 | 0.00 | 30 | 1007.4 |
| 20260504211419 | 83 | 15 | 0.9 | 3.5 | 0.00 | 0.00 | 0.00 | 29 | 1007.4 |
| 20260504210647 | 83 | 158 | 0.0 | 3.5 | 0.00 | 0.00 | 0.00 | 31 | 1007.4 |
| 20260504210143 | 82 | 153 | 0.0 | 3.5 | 0.00 | 0.00 | 0.00 | 30 | 1007.3 |
| 20260504205636 | 82 | 146 | 0.0 | 1.7 | 0.00 | 0.00 | 0.00 | 30 | 1007.4 |
| 20260504205131 | 82 | 151 | 0.9 | 1.7 | 0.00 | 0.00 | 0.00 | 30 | 1007.4 |
| 20260504204624 | 82 | 214 | 0.9 | 1.7 | 0.00 | 0.00 | 0.00 | 29 | 1007.4 |
| 20260504204118 | 83 | 181 | 0.9 | 5.2 | 0.00 | 0.00 | 0.00 | 31 | 1007.5 |
| 20260504203612 | 82 | 207 | 0.9 | 5.2 | 0.00 | 0.00 | 0.00 | 30 | 1007.5 |
| 20260504203106 | 82 | 47 | 0.9 | 3.5 | 0.00 | 0.00 | 0.00 | 31 | 1007.5 |
| 20260504202600 | 82 | 53 | 0.9 | 7.8 | 0.00 | 0.00 | 0.00 | 30 | 1007.6 |
| 20260504202054 | 81 | 221 | 0.9 | 7.8 | 0.00 | 0.00 | 0.00 | 30 | 1007.7 |
| 20260504201548 | 81 | 183 | 0.9 | 4.3 | 0.00 | 0.00 | 0.00 | 31 | 1007.7 |
| 20260504201042 | 82 | 59 | 0.9 | 4.3 | 0.00 | 0.00 | 0.00 | 29 | 1007.9 |
| 20260504200536 | 82 | 257 | 0.9 | 3.5 | 0.00 | 0.00 | 0.00 | 30 | 1007.9 |
| 20260504200031 | 82 | 140 | 0.9 | 2.6 | 0.00 | 0.00 | 0.00 | 30 | 1007.9 |
| 20260504195524 | 82 | 159 | 0.9 | 2.6 | 0.00 | 0.00 | 0.00 | 31 | 1007.9 |
| 20260504195018 | 82 | 170 | 0.9 | 5.2 | 0.00 | 0.00 | 0.00 | 30 | 1007.9 |
| 20260504194512 | 81 | 219 | 0.0 | 5.2 | 0.00 | 0.00 | 0.00 | 30 | 1008.0 |
| 20260504194006 | 81 | 221 | 0.9 | 2.6 | 0.00 | 0.00 | 0.00 | 31 | 1008.1 |
| 20260504193459 | 80 | 169 | 0.9 | 3.5 | 0.00 | 0.00 | 0.00 | 32 | 1008.1 |
| 20260504192954 | 80 | 222 | 0.9 | 3.5 | 0.00 | 0.00 | 0.00 | 31 | 1008.3 |
| 20260504192448 | 80 | 340 | 0.9 | 2.6 | 0.00 | 0.00 | 0.00 | 33 | 1008.5 |
| 20260504191948 | 80 | 101 | 0.9 | 5.2 | 0.00 | 0.00 | 0.00 | 32 | 1008.6 |
| 20260504191449 | 79 | 120 | 0.9 | 5.2 | 0.00 | 0.00 | 0.00 | 32 | 1008.5 |
| 20260504191210 | 79 | 160 | 0.9 | 3.5 | 0.00 | 0.00 | 0.00 | 32 | 1008.5 |
| 20260504190448 | 78 | 232 | 0.9 | 3.5 | 0.00 | 0.00 | 0.00 | 31 | 1008.8 |